JAGSAT

Last updated on Thu Dec 15 2022 00:02:06 GMT+0000 (Coordinated Universal Time)

1 53771U 98067UJ 22347.90889245 .00180886 00000+0 13490-2 0 9995 2 53771 51.6333 159.1811 0008803 229.9718 130.0508 15.71614179 15385

Satellite not in orbit